User: anonymous   Login
Location: Gouy
(50.0008°N, 3.2556°E)
Time: 17:16:40
(UTC+00:00)
Language:

CZ-6A DEB - Orbit

View from above orbital plane
View from above orbital plane
View from above satellite
View from above satellite

Ground track
Ground track

The orbit data is extracted from the following two-line orbital elements,

1 55224U 22151WR  24280.33162199  .00077201  00000-0  12468-1 0  9998
2 55224  98.6922 318.8523 0077466 356.8948   3.1765 14.68963941 95039
Epoch (UTC): 06 October 2024 07:57:32
Eccentricity: 0.0077466
inclination: 98.6922°
perigee height: 610 km
apogee height: 719 km
right ascension of ascending node: 318.8523°
argument of perigee: 356.8948°
revolutions per day: 14.68963941
mean anomaly at epoch: 3.1765°
orbit number at epoch: 9503

The dashed part of the orbit path shows where the satellite is in the earth's shadow,  

DLR